Johnstown, NE

3:44 PM CST on January 17, 2017 (GMT -0600)
Ainsworth Municipal

Weather History for KANW - February, 2014

Change the Weather History Date:

Wednesday, February 5, 2014

  Actual Average Record
Temperature  
Mean Temperature -2 °F -  
Max Temperature 5 °F 36 °F 73 °F (1997)
Min Temperature -9 °F 16 °F -9 °F (2014)
Degree Days  
Heating Degree Days 67    
Moisture  
Dew Point -8 °F    
Average Humidity 72    
Maximum Humidity 82    
Minimum Humidity 57    
Precipitation  
Precipitation 0.00 in - - ()
Sea Level Pressure  
Sea Level Pressure 30.53 in    
Wind  
Wind Speed 11 mph (NW)    
Max Wind Speed 20 mph    
Max Gust Speed 24 mph    
Visibility 9 miles    
Events Snow    
Averages and records for this station are not official NWS values.
T = Trace of Precipitation, MM = Missing Value Source: NWS Daily Summary

Daily Weather History Graph

Daily Weather History Graph

Search for Another Location

Airport or City:

Trip Planner

Search our weather history database for the weather conditions in past years. The results will help you decide how hot, cold, wet, or windy it might be!

Date:

Astronomy

Feb. 05, 2014 Rise Set
Actual Time 7:49 AM CST 5:58 PM CST
Civil Twilight 7:19 AM CST 6:28 PM CST
Nautical Twilight 6:46 AM CST 7:02 PM CST
Astronomical Twilight 6:13 AM CST 7:35 PM CST
Moon 10:56 AM CST (2/5) 12:02 AM CST (2/5)
Length of Visible Light 11h 08m
Length of Day
10h 09m
Waxing Crescent, 39% of the Moon is Illuminated
Feb 5
Waxing Crescent
Feb 6
First Quarter
Feb 14
Full
Feb 22
Last Quarter
Mar 1
New

Hourly Weather History & Observations

Time (CST) Temp. Windchill Dew Point Humidity Pressure Visibility Wind Dir Wind Speed Gust Speed Precip Events Conditions
12:15 AM 3.7 °F -13.2 °F -1.3 °F 80% 30.46 in 4.0 mi NNW 12.7 mph - N/A Snow Light Snow
12:35 AM 3.7 °F -12.4 °F -1.3 °F 80% 30.47 in 4.0 mi NNW 11.5 mph - N/A Snow Light Snow
12:55 AM 3.7 °F -11.6 °F -1.1 °F 80% 30.47 in 4.0 mi NNW 10.4 mph - N/A Snow Light Snow
1:15 AM 3.7 °F -13.2 °F -1.3 °F 80% 30.47 in 5.0 mi NNW 12.7 mph - N/A Snow Light Snow
1:35 AM 3.9 °F -12.2 °F -0.9 °F 80% 30.47 in 4.0 mi NNW 11.5 mph - N/A Snow Light Snow
1:55 AM 3.7 °F -12.4 °F -1.1 °F 80% 30.47 in 4.0 mi NNW 11.5 mph - N/A Snow Light Snow
2:15 AM 3.7 °F -12.4 °F -1.3 °F 80% 30.48 in 5.0 mi NNW 11.5 mph - N/A Snow Light Snow
2:35 AM 3.6 °F -9.8 °F -0.9 °F 82% 30.48 in 5.0 mi NNW 8.1 mph - N/A   Overcast
2:55 AM 3.6 °F -10.9 °F -0.9 °F 82% 30.49 in 4.0 mi NNW 9.2 mph - N/A Snow Light Snow
3:15 AM 3.2 °F -12.2 °F -1.3 °F 82% 30.49 in 5.0 mi NNW 10.4 mph - N/A   Overcast
3:35 AM 2.8 °F -13.5 °F -1.8 °F 81% 30.49 in 7.0 mi North 11.5 mph - N/A   Overcast
3:55 AM 2.3 °F -11.4 °F -2.2 °F 81% 30.49 in 4.0 mi NNW 8.1 mph - N/A Snow Light Snow
4:15 AM 1.0 °F -12.9 °F -3.3 °F 82% 30.50 in 10.0 mi North 8.1 mph - N/A   Mostly Cloudy
4:35 AM 1.0 °F -20.4 °F -4.0 °F 79% 30.50 in 10.0 mi North 19.6 mph 23.0 mph N/A   Mostly Cloudy
4:55 AM 0.1 °F -16.9 °F -4.9 °F 79% 30.52 in 10.0 mi North 11.5 mph - N/A   Scattered Clouds
5:15 AM -0.8 °F -20.3 °F -5.3 °F 81% 30.52 in 10.0 mi North 15.0 mph - N/A   Clear
5:35 AM -1.8 °F -19.4 °F -6.7 °F 80% 30.52 in 10.0 mi North 11.5 mph - N/A   Scattered Clouds
5:55 AM -3.1 °F -20.1 °F -8.0 °F 80% 30.52 in 10.0 mi North 10.4 mph - N/A   Scattered Clouds
6:15 AM -4.0 °F -19.0 °F -8.5 °F 81% 30.53 in 10.0 mi NNW 8.1 mph - N/A   Scattered Clouds
6:35 AM -4.4 °F -20.6 °F -8.7 °F 82% 30.52 in 10.0 mi NNW 9.2 mph - N/A   Clear
6:55 AM -4.9 °F -18.8 °F -9.4 °F 81% 30.53 in 10.0 mi NW 6.9 mph - N/A   Clear
7:15 AM -6.7 °F -22.3 °F -11.0 °F 81% 30.53 in 10.0 mi NW 8.1 mph - N/A   Clear
7:35 AM -7.4 °F -23.2 °F -11.6 °F 82% 30.53 in 10.0 mi WNW 8.1 mph - N/A   Clear
7:55 AM -7.8 °F -20.8 °F -12.1 °F 81% 30.54 in 10.0 mi WNW 5.8 mph - N/A   Clear
8:15 AM -8.9 °F -22.1 °F -13.4 °F 81% 30.55 in 10.0 mi WNW 5.8 mph - N/A   Clear
8:35 AM -8.1 °F -24.1 °F -12.6 °F 81% 30.56 in 10.0 mi WNW 8.1 mph - N/A   Clear
8:55 AM -6.7 °F -19.5 °F -11.2 °F 81% 30.56 in 10.0 mi WNW 5.8 mph - N/A   Clear
9:15 AM -4.7 °F -19.9 °F -9.2 °F 81% 30.57 in 10.0 mi NW 8.1 mph - N/A   Clear
9:35 AM -2.6 °F -17.3 °F -6.9 °F 82% 30.57 in 10.0 mi NW 8.1 mph - N/A   Clear
9:55 AM -0.6 °F -18.6 °F -6.0 °F 78% 30.58 in 10.0 mi NW 12.7 mph - N/A   Clear
10:15 AM 0.5 °F -18.0 °F -6.7 °F 72% 30.58 in 10.0 mi NW 13.8 mph - N/A   Clear
10:17 AM 1.4 °F -17.6 °F -7.6 °F 66% 30.58 in 10.0 mi NW 15.0 mph - N/A   Clear
10:35 AM 1.4 °F -16.1 °F -6.2 °F 71% 30.57 in 10.0 mi NNW 12.7 mph - N/A   Clear
10:55 AM 2.7 °F -16.0 °F -5.1 °F 70% 30.57 in 10.0 mi NNW 15.0 mph - N/A   Clear
11:15 AM 3.2 °F -15.3 °F -4.5 °F 70% 30.57 in 10.0 mi NW 15.0 mph - N/A   Scattered Clouds
11:35 AM 4.1 °F -14.1 °F -4.0 °F 69% 30.57 in 10.0 mi NNW 15.0 mph - N/A   Scattered Clouds
11:55 AM 4.5 °F -13.7 °F -4.9 °F 65% 30.57 in 10.0 mi NNW 15.0 mph 24.2 mph N/A   Mostly Cloudy
12:15 PM 5.0 °F -13.0 °F -4.5 °F 65% 30.57 in 10.0 mi NNW 15.0 mph - N/A   Mostly Cloudy
12:35 PM 4.3 °F -14.5 °F -5.3 °F 65% 30.56 in 10.0 mi NNW 16.1 mph - N/A   Mostly Cloudy
12:55 PM 4.6 °F -15.2 °F -5.3 °F 64% 30.56 in 10.0 mi NNW 18.4 mph - N/A   Scattered Clouds
1:15 PM 5.4 °F -14.2 °F -4.7 °F 63% 30.54 in 10.0 mi NW 18.4 mph 24.2 mph N/A   Scattered Clouds
1:35 PM 4.1 °F -14.7 °F -5.1 °F 66% 30.54 in 10.0 mi NNW 16.1 mph - N/A   Mostly Cloudy
1:55 PM 4.5 °F -13.7 °F -5.8 °F 63% 30.53 in 10.0 mi NW 15.0 mph - N/A   Scattered Clouds
2:15 PM 3.6 °F -14.8 °F -6.7 °F 62% 30.53 in 10.0 mi NNW 15.0 mph - N/A   Scattered Clouds
2:35 PM 4.1 °F -14.7 °F -6.9 °F 60% 30.53 in 10.0 mi NNW 16.1 mph - N/A   Scattered Clouds
2:55 PM 4.1 °F -14.7 °F -7.1 °F 60% 30.53 in 10.0 mi NNW 16.1 mph - N/A   Scattered Clouds
3:15 PM 3.9 °F -13.0 °F -7.4 °F 59% 30.54 in 10.0 mi NW 12.7 mph - N/A   Scattered Clouds
3:35 PM 3.0 °F -14.1 °F -8.1 °F 60% 30.55 in 10.0 mi NW 12.7 mph - N/A   Clear
3:55 PM 2.8 °F -12.7 °F -8.5 °F 59% 30.54 in 10.0 mi NNW 10.4 mph - N/A   Clear
4:15 PM 3.9 °F -13.0 °F -8.1 °F 57% 30.54 in 10.0 mi NNW 12.7 mph - N/A   Clear
4:35 PM 3.7 °F -12.4 °F -8.1 °F 58% 30.54 in 10.0 mi NNW 11.5 mph - N/A   Clear
4:55 PM 3.6 °F -12.6 °F -8.5 °F 57% 30.55 in 10.0 mi NNW 11.5 mph - N/A   Scattered Clouds
5:15 PM 3.2 °F -15.3 °F -9.0 °F 57% 30.55 in 10.0 mi NW 15.0 mph - N/A   Scattered Clouds
5:35 PM 2.3 °F -15.0 °F -8.9 °F 60% 30.55 in 10.0 mi NW 12.7 mph - N/A   Clear
5:55 PM 1.4 °F -12.5 °F -9.4 °F 61% 30.55 in 10.0 mi NW 8.1 mph - N/A   Clear
6:15 PM 0.1 °F -12.8 °F -10.3 °F 61% 30.55 in 10.0 mi NW 6.9 mph - N/A   Clear
6:35 PM -0.6 °F -16.0 °F -10.3 °F 64% 30.54 in 10.0 mi NW 9.2 mph - N/A   Clear
6:55 PM -2.7 °F -17.5 °F -11.6 °F 66% 30.54 in 10.0 mi NW 8.1 mph - N/A   Clear
7:15 PM -3.5 °F -18.4 °F -11.4 °F 69% 30.53 in 10.0 mi NW 8.1 mph - N/A   Clear
7:35 PM -5.4 °F -19.5 °F -12.8 °F 70% 30.53 in 10.0 mi WNW 6.9 mph - N/A   Clear
7:55 PM -4.9 °F -20.1 °F -11.7 °F 72% 30.52 in 10.0 mi WNW 8.1 mph - N/A   Clear
8:15 PM -6.0 °F -20.1 °F -13.0 °F 72% 30.52 in 10.0 mi WNW 6.9 mph - N/A   Clear
8:35 PM -6.0 °F -22.6 °F -12.8 °F 72% 30.53 in 10.0 mi WNW 9.2 mph - N/A   Clear
8:55 PM -6.5 °F -22.1 °F -13.2 °F 73% 30.53 in 10.0 mi WNW 8.1 mph - N/A   Clear
9:15 PM -7.8 °F -23.6 °F -14.3 °F 73% 30.53 in 10.0 mi WNW 8.1 mph - N/A   Clear
9:35 PM -8.5 °F -24.5 °F -14.8 °F 74% 30.53 in 10.0 mi West 8.1 mph - N/A   Clear
9:36 PM -9.4 °F -25.6 °F -14.8 °F 77% 30.53 in 10.0 mi West 8.1 mph - N/A   Clear
9:55 PM -7.4 °F -23.2 °F -13.7 °F 74% 30.53 in 10.0 mi WNW 8.1 mph - N/A   Clear
10:15 PM -7.1 °F -21.4 °F -13.7 °F 73% 30.53 in 10.0 mi WNW 6.9 mph - N/A   Clear
10:35 PM -6.2 °F -22.8 °F -12.8 °F 73% 30.52 in 10.0 mi West 9.2 mph - N/A   Clear
10:55 PM -6.3 °F -23.1 °F -13.0 °F 73% 30.52 in 10.0 mi West 9.2 mph - N/A   Clear
11:15 PM -7.8 °F -24.8 °F -14.3 °F 73% 30.52 in 10.0 mi West 9.2 mph - N/A   Clear
11:35 PM -8.7 °F -25.9 °F -15.2 °F 73% 30.51 in 10.0 mi West 9.2 mph - N/A   Clear
11:55 PM -9.6 °F -25.8 °F -15.7 °F 74% 30.51 in 10.0 mi West 8.1 mph - N/A   Clear